This is the latest recevied weather packets stored in our database for station/object N3WR. If no packets are shown the sender has not sent any weather packets the latest 1 day(s).
| Time | Temp. | Humidity | Pressure | Rain* | Wind** | Luminosity | Snow |
|---|---|---|---|---|---|---|---|
| 1778033699 | 21.11° C | 55% | 1008.9 hPa | 0 mm | 3.13 m/s, 196° | - | - |
| 1778032802 | 21.11° C | 54% | 1008.9 hPa | 0 mm | 2.68 m/s, 164° | - | - |
| 1778031899 | 21.67° C | 53% | 1008.6 hPa | 0 mm | 2.68 m/s, 182° | - | - |
| 1778031001 | 22.22° C | 50% | 1008.5 hPa | 0 mm | 2.68 m/s, 175° | - | - |
| 1778030098 | 22.22° C | 49% | 1008.2 hPa | 0 mm | 2.24 m/s, 165° | - | - |
| 1778029204 | 22.78° C | 49% | 1007.9 hPa | 0 mm | 2.68 m/s, 195° | - | - |
| 1778028299 | 22.78° C | 48% | 1007.7 hPa | 0 mm | 3.58 m/s, 211° | - | - |
| 1778027400 | 22.78° C | 49% | 1007.8 hPa | 0 mm | 3.13 m/s, 171° | - | - |
| 1778026503 | 23.33° C | 49% | 1007.6 hPa | 0 mm | 3.13 m/s, 194° | - | - |
| 1778025604 | 23.33° C | 48% | 1007.5 hPa | 0 mm | 3.13 m/s, 201° | - | - |
| 1778024699 | 23.33° C | 46% | 1007.4 hPa | 0 mm | 3.13 m/s, 188° | - | - |
| 1778023799 | 23.89° C | 45% | 1007.2 hPa | 0 mm | 3.58 m/s, 196° | - | - |
| 1778022898 | 24.44° C | 45% | 1007.3 hPa | 0 mm | 3.58 m/s, 196° | - | - |
| 1778022004 | 24.44° C | 44% | 1007.1 hPa | 0 mm | 4.02 m/s, 182° | - | - |
| 1778021098 | 25° C | 44% | 1007.1 hPa | 0 mm | 4.02 m/s, 197° | - | - |
| 1778020198 | 25° C | 44% | 1006.9 hPa | 0 mm | 3.58 m/s, 172° | - | - |
| 1778019298 | 25.56° C | 44% | 1006.9 hPa | 0 mm | 5.36 m/s, 171° | - | - |
| 1778018402 | 25.56° C | 44% | 1006.8 hPa | 0 mm | 4.47 m/s, 180° | - | - |
| 1778017498 | 25.56° C | 44% | 1006.7 hPa | 0 mm | 4.02 m/s, 180° | - | - |
| 1778016598 | 25.56° C | 44% | 1007 hPa | 0 mm | 4.02 m/s, 193° | - | - |
| 1778015698 | 25.56° C | 44% | 1006.8 hPa | 0 mm | 4.47 m/s, 213° | - | - |
| 1778014803 | 25.56° C | 45% | 1006.9 hPa | 0 mm | 4.02 m/s, 192° | - | - |
| 1778013898 | 26.11° C | 45% | 1006.8 hPa | 0 mm | 4.02 m/s, 179° | - | - |
| 1778012998 | 26.11° C | 43% | 1006.9 hPa | 0 mm | 4.92 m/s, 192° | - | - |
| 1778012098 | 26.11° C | 45% | 1006.8 hPa | 0 mm | 5.81 m/s, 241° | - | - |
* Rain latest hour (hover to see other rain measurements)
** Current wind speed in m/s (hover to see current wind gust speed)